AO-07 1 07530U 74089B 15225.77519950 -.00000044 00000-0 -15737-5 0 9999 2 07530 101.5262 199.6485 0011763 188.9768 221.0964 12.53615892864476 FO-29 1 24278U 96046B 15225.40943199 -.00000030 00000-0 89824-5 0 9992 2 24278 098.5459 186.4791 0349349 282.5246 253.4301 13.53055297937762 SO-33 1 25509U 98061B 15224.55750019 .00000494 00000-0 82735-4 0 9997 2 25509 031.4334 291.8836 0347708 207.6620 150.5104 14.30036077877492 RS-22 1 27939U 03042A 15225.68015544 .00000264 00000-0 56340-4 0 9991 2 27939 097.8479 025.0366 0012373 201.1041 158.9649 14.66120615634617 HO-68 1 36122U 09072B 15225.55170887 -.00000060 00000-0 -43517-4 0 9990 2 36122 100.1898 268.2981 0007333 350.8957 009.2025 13.16328530272003 AO-73 1 39444U 13066AE 15225.21117822 .00000728 00000-0 99590-4 0 9992 2 39444 097.7263 285.8686 0058441 310.7390 048.8756 14.80391401 91850 EO-79 1 40025U 14033R 15225.67353555 .00000796 00000-0 94351-4 0 9994 2 40025 097.9461 126.0076 0013004 003.1037 357.0257 14.87292933 62345 UO-11 1 14781U 84021B 15225.20396601 .00000361 00000-0 51394-4 0 9994 2 14781 097.7968 280.8687 0007299 239.8453 120.2038 14.82475322690479 AO-16 1 20439U 90005D 15225.35339959 .00000047 00000-0 33346-4 0 9997 2 20439 098.5419 160.7151 0010831 358.4472 115.1414 14.32562202334928 LO-19 1 20442U 90005G 15225.05008753 .00000039 00000-0 30133-4 0 9995 2 20442 098.5127 159.8012 0011524 346.4326 013.6547 14.32753288335081 AO-27 1 22825U 93061C 15225.38521324 .00000020 00000-0 25270-4 0 9993 2 22825 098.7128 175.5236 0009134 135.4967 339.1967 14.29896755141119 IO-26 1 22826U 93061D 15224.84716105 .00000030 00000-0 28771-4 0 9997 2 22826 098.7069 175.1453 0009762 129.6678 230.5366 14.30215261141185 GO-32 1 25397U 98043D 15225.80410199 -.00000000 00000-0 18501-4 0 9997 2 25397 098.5239 174.4532 0001993 124.4354 265.5481 14.23556163887993 NO-44 1 26931U 01043C 15225.62967910 -.00000017 00000-0 25435-4 0 9996 2 26931 067.0516 028.9163 0005786 273.2576 086.7863 14.30334822724017 SO-50 1 27607U 02058C 15224.92955167 .00000246 00000-0 55662-4 0 9995 2 27607 064.5555 025.5274 0082892 277.3752 081.7935 14.74810043679659 CO-55 1 27844U 03031E 15225.63368591 .00000115 00000-0 72188-4 0 9995 2 27844 098.6960 233.3428 0010602 130.2644 008.7771 14.21833257628607 CO-57 1 27848U 03031J 15224.88931866 .00000103 00000-0 67080-4 0 9998 2 27848 098.7057 232.5458 0010356 139.2300 338.6867 14.21475910628404 AO-51 1 28375U 04025K 15225.08301443 .00000050 00000-0 27828-4 0 9990 2 28375 098.2946 163.9026 0083152 156.9462 203.5494 14.41685222584687 CP3 1 31129U 07012N 15225.40158873 .00000375 00000-0 90211-4 0 9999 2 31129 097.9857 188.7021 0097422 134.8536 026.5488 14.55899126441444 CO-65 1 32785U 08021C 15225.38518890 .00000714 00000-0 85543-4 0 9994 2 32785 097.6446 266.8304 0012145 233.7327 218.0082 14.87003706394735 PRISM 1 33493U 09002B 15225.71414469 .00002487 00000-0 24124-3 0 9991 2 33493 098.2477 065.9246 0016834 137.7540 222.4993 14.93566687355168 SOHLA-1 1 33496U 09002E 15224.89790127 .00000165 00000-0 35001-4 0 9998 2 33496 098.2194 353.2850 0006047 356.3169 118.2552 14.71406286351514 TISAT-1 1 36799U 10035E 15225.76627137 .00001096 00000-0 12327-3 0 9991 2 36799 098.0188 326.8267 0013324 024.8351 127.9351 14.88734836275521 STUDSAT 1 36801U 10035G 15224.88241249 .00009900 00000-0 55122-3 0 9995 2 36801 098.0667 347.5591 0004530 312.4060 164.2190 15.13849629276543 ALMASAT-1 1 38078U 12006B 15224.49917540 .00026544 33907-5 44247-3 0 9990 2 38078 069.4556 098.1933 0469966 179.7882 180.3562 14.81326577183379 CUBEBUG-1 1 39153U 13018D 15225.71443378 .00000562 00000-0 82337-4 0 9996 2 39153 098.0162 309.9136 0018582 069.5169 290.8035 14.79346617123988 ESTCUBE-1 1 39161U 13021C 15225.73910371 .00000654 00000-0 11395-3 0 9990 2 39161 098.0702 308.1622 0010702 126.9074 233.3121 14.71258738121701 DUCHIFAT-1 1 40021U 14033M 15225.66352696 .00001225 00000-0 13863-3 0 9990 2 40021 097.9481 126.4292 0013729 003.1131 357.0168 14.88242867 62350 NANOSATCBR1 1 40024U 14033Q 15225.67028878 .00001056 00000-0 12167-3 0 9994 2 40024 097.9462 126.1732 0012890 002.6691 357.4592 14.87799660 62342 DTUSAT-2 1 40030U 14033W 15225.71333625 .00000812 00000-0 97068-4 0 9998 2 40030 097.9449 125.7449 0012263 356.7805 003.3330 14.86919020 62326 ANTELSAT 1 40034U 14033AA 15225.65470441 .00000856 00000-0 13825-3 0 9999 2 40034 097.9358 116.4177 0059185 296.6692 062.8463 14.72840051 61759 MET-2/21 1 22782U 93055A 15225.05833914 .00000032 00000-0 14980-4 0 9992 2 22782 082.5487 198.5382 0022847 158.1057 271.3016 13.83772973108462 OKEAN-4 1 23317U 94066A 15225.36374946 .00000653 00000-0 70339-4 0 9998 2 23317 082.5368 031.7137 0021143 137.2349 269.6212 14.86775305125802 NOAA-14 1 23455U 94089A 15225.45422876 -.00000013 00000-0 16189-4 0 9996 2 23455 098.7503 305.7235 0008357 278.0844 212.3850 14.14049288 63623 NOAA-15 1 25338U 98030A 15225.42635687 .00000080 00000-0 52456-4 0 9991 2 25338 098.7749 224.1073 0010756 009.1457 350.9916 14.25652248896994 RESURS 1 25394U 98043A 15225.39744610 -.00000041 00000-0 47066-6 0 9991 2 25394 098.4698 178.4308 0002537 097.9564 012.1851 14.24457935888429 FENGYUN1 1 25730U 99025A 15225.39074376 .00000976 00000-0 54078-3 0 9995 2 25730 098.9454 190.2414 0021293 347.2771 166.3894 14.13565164837132 OKEAN-0 1 25860U 99039A 15224.98497120 .00000283 00000-0 48472-4 0 9997 2 25860 098.0996 193.1471 0001771 103.3865 298.2103 14.76107145864360 NOAA-16 1 26536U 00055A 15225.44749589 -.00000011 00000-0 17807-4 0 9997 2 26536 098.9384 291.3596 0011519 073.2089 287.0346 14.13104774767749 NOAA-17 1 27453U 02032A 15225.44953462 .00000017 00000-0 24643-4 0 9991 2 27453 098.3445 208.6245 0012196 021.0005 339.1674 14.24895099682819 NOAA-18 1 28654U 05018A 15225.52150645 .00000034 00000-0 43648-4 0 9998 2 28654 099.1873 219.5724 0014665 156.0753 204.1102 14.12225749527161 NOAA-19 1 33591U 09005A 15225.49451123 .00000107 00000-0 82929-4 0 9991 2 33591 098.9937 175.5233 0014398 013.1567 346.9977 14.11965522335576 HUBBLE 1 20580U 90037B 15225.18101360 .00001227 00000-0 67231-4 0 9994 2 20580 028.4695 138.2432 0003085 127.7683 351.2520 15.07612691188423 ISS 1 25544U 98067A 15225.66002906 .00010158 00000-0 15454-3 0 9991 2 25544 051.6455 157.0742 0001309 067.7780 356.7352 15.55173126956986 CO-58 1 28895U 05043F 15225.71823687 .00000359 00000-0 78820-4 0 9997 2 28895 097.8219 050.4878 0018387 113.0808 247.2335 14.62863923522009 FALCON 1 30776U 07006E 15225.40554053 .00005619 00000-0 22112-3 0 9999 2 30776 035.4283 002.2478 0000739 052.6301 338.6954 15.25083523465039 MAST 1 31126U 07012K 15224.89051711 .00000294 00000-0 72837-4 0 9995 2 31126 097.9658 190.3669 0092087 118.5567 268.8041 14.56111304441747 CAPE1 1 31130U 07012P 15224.48373619 .00000352 00000-0 85827-4 0 9997 2 31130 097.9874 187.2787 0098015 139.6901 221.1617 14.55567545441079 COMPASS 1 32787U 08021E 15225.72671883 .00001190 00000-0 12584-3 0 9999 2 32787 097.6469 271.6240 0012150 216.2252 143.8145 14.90957490395080 AAUSAT2 1 32788U 08021F 15224.80818422 .00001685 00000-0 17140-3 0 9992 2 32788 097.6479 272.3445 0011596 215.4750 144.5699 14.92021632395044 DO-64 1 32789U 08021G 15225.76016230 .00002862 00000-0 23157-3 0 9999 2 32789 097.6758 285.0839 0012195 208.4587 288.3881 15.00508160395719 CO-66 1 32791U 08021J 15225.08166669 .00001031 00000-0 11525-3 0 9992 2 32791 097.6465 268.6726 0012753 226.6346 133.3810 14.88956644394780 RS-30 1 32953U 08025A 15225.62207104 .00000010 00000-0 -13620-7 0 9995 2 32953 082.5042 298.5252 0017583 317.6652 042.3074 12.43062694327742 METEOR-M 1 35865U 09049A 15225.71998054 .00000043 00000-0 38332-4 0 9997 2 35865 098.4965 263.9919 0001624 334.7780 158.7790 14.22043349306383 RS-38 1 35869U 09049E 15225.57565070 .00000009 00000-0 22836-4 0 9997 2 35869 098.4869 263.4535 0004009 319.0759 041.0119 14.22305452306410 JUGNU 1 37839U 11058B 15225.30901876 .00000341 00000-0 40143-4 0 9998 2 37839 019.9603 216.2243 0018802 316.3120 169.8370 14.12482019198302 SRMSAT 1 37841U 11058D 15225.40466544 .00000329 00000-0 35974-4 0 9992 2 37841 019.9711 243.5138 0011676 240.2394 253.0264 14.10491418198030 RAX-2 1 37853U 11061D 15225.19104880 .00002028 00000-0 13033-3 0 9996 2 37853 101.7053 104.2754 0194189 269.2643 206.8810 14.96658590205636 AUBIESAT 1 37854U 11061E 15225.66524546 .00002344 00000-0 14506-3 0 9991 2 37854 101.7080 108.8216 0184737 261.7535 121.6681 14.98843466205826 HRBE 1 37855U 11061F 15225.18185770 .00002324 00000-0 14349-3 0 9994 2 37855 101.7058 106.5273 0194542 266.7376 091.1559 14.97642956205682 HORYU-2 1 38340U 12025D 15225.19098827 .00000734 00000-0 11868-3 0 9998 2 38340 098.3183 196.6098 0010519 276.7258 083.2752 14.74430716173931 RS-40 1 38735U 12041C 15225.76240299 .00000040 00000-0 21992-3 0 9998 2 38735 082.4736 024.0715 0017574 056.7063 303.5694 12.42569673138061 PROITERES 1 38756U 12047B 15225.75945562 .00000494 00000-0 79623-4 0 9999 2 38756 098.2236 326.0322 0013327 111.8177 248.4451 14.75889107157495 BEESAT-3 1 39134U 13015E 15225.21106460 .00003484 00000-0 20664-3 0 9995 2 39134 064.8706 234.9852 0028272 245.0358 114.7828 15.12761977127326 BEESAT-2 1 39136U 13015G 15225.52848172 .00002519 00000-0 15974-3 0 9990 2 39136 064.8711 236.8501 0028752 243.4795 116.3379 15.11035635127329 ZACUBE-1 1 39417U 13066B 15225.13265837 .00000577 00000-0 81380-4 0 9993 2 39417 097.7259 285.5023 0059123 311.9992 047.6194 14.79838714 93054 TRITON-1 1 39427U 13066M 15225.72023529 .00000478 00000-0 86158-4 0 9997 2 39427 097.7104 273.0729 0115095 344.1825 015.5796 14.66751245 92299 DELFIN3XT 1 39428U 13066N 15225.70488205 .00000788 00000-0 13827-3 0 9998 2 39428 097.7111 271.2652 0123561 349.4679 010.3940 14.65559524 92160 GOMX-1 1 39430U 13066Q 15225.57983645 .00000783 00000-0 15345-3 0 9996 2 39430 097.7048 264.5391 0153545 009.4244 350.9775 14.58164692 91745 MO-76 1 39436U 13066W 15225.26667847 .00012393 00000-0 79091-3 0 9999 2 39436 097.7433 301.8331 0019703 267.0914 092.8059 15.08671118 94091 LO-74 1 39440U 13066AA 15225.33711068 .00000532 00000-0 83211-4 0 9999 2 39440 097.7199 280.5496 0080932 324.0043 035.5731 14.74648736 92753 PUCPSAT-1 1 39442U 13066AC 15225.75549620 .00000931 00000-0 10459-3 0 9996 2 39442 097.7357 294.4522 0031544 293.9440 065.8475 14.88783625 92433 SPROUT 1 39770U 14029E 15225.09442884 .00001494 00000-0 18584-3 0 9993 2 39770 097.8737 321.1446 0010031 023.7781 336.3901 14.83985185 66079 POPSAT-HIP1 1 40028U 14033U 15225.71692214 .00001349 00000-0 15603-3 0 9997 2 40028 097.9495 126.1402 0014488 359.5287 000.5912 14.87164956 62331 EO-80 1 40032U 14033Y 15225.65762840 .00000825 00000-0 98698-4 0 9992 2 40032 097.9456 125.7016 0012200 356.9766 003.1373 14.86844141 62321 VELOX-1 1 40057U 14034E 15225.69203977 .00001176 00000-0 17840-3 0 9994 2 40057 098.2145 304.7353 0012487 058.3434 301.8985 14.75984809 60365 DAURIA DX 1 1 40071U 14037C 15225.78045411 .00000533 00000-0 77140-4 0 9996 2 40071 098.3541 299.5580 0009681 059.8359 300.3807 14.80467748 59313 UKUBE-1 1 40074U 14037F 15225.74521239 .00001167 00000-0 15317-3 0 9993 2 40074 098.3566 300.4883 0005910 066.8029 293.3796 14.82346101 59368 HODOYOSHI-1 1 40299U 14070B 15225.76969267 .00002246 00000-0 10838-3 0 9990 2 40299 097.4549 306.5717 0011657 296.0202 160.2214 15.19666341 42569 CHUBUSAT-1 1 40300U 14070C 15225.72987323 .00002381 00000-0 11992-3 0 9994 2 40300 097.4515 305.6533 0020784 296.0477 220.7398 15.17989556 42509 QSAT-EOS 1 40301U 14070D 15225.72293334 .00004450 00000-0 22180-3 0 9997 2 40301 097.4474 304.9345 0030244 295.8770 226.4766 15.17673102 42466 TSUBAME 1 40302U 14070E 15225.73500373 .00002491 00000-0 14075-3 0 9990 2 40302 097.4453 303.4507 0041366 300.3382 158.2070 15.13326442 42374 FIREBIRD FU3 1 40377U 15003B 15225.70896952 .00006113 00000-0 30033-3 0 9994 2 40377 099.1144 269.8387 0156979 065.4325 296.3167 15.08310812 29224 FIREBIRD FU4 1 40378U 15003C 15225.70632074 .00005947 00000-0 29205-3 0 9991 2 40378 099.1144 269.8433 0157218 065.3902 296.3610 15.08315496 29220 GRIFEX 1 40379U 15003D 15225.77235415 .00004858 00000-0 24445-3 0 9998 2 40379 099.1155 269.7699 0158636 066.6653 295.1172 15.07479596 29229 LAMBDA-SAT 1 40458U 98067GB 15136.30676273 .20783109 12527-4 14817-2 0 9995 2 40458 051.6075 233.7697 0010355 318.5347 043.1720 16.39926603 21161 NO-84 1 40654U 15225.52511821 .00010030 00000-0 25590-3 0 00921 2 40654 054.9938 331.5791 0244541 031.1609 330.3503 15.15095176012862 NO-83 1 40655U 15225.56455221 .00013794 00000-0 34305-3 0 00987 2 40655 054.9903 331.1376 0241391 031.4458 330.0678 15.15942974012873 DEORBITSAIL 1 40719U 15032E 15224.84019895 .00000670 00000-0 10792-3 0 9995 2 40719 098.0488 113.7642 0017556 144.9031 215.3341 14.74614693 4884 /EX